,,PA_Meas_PMT16A,,PR_Meas_QMR101_102,,RH_Meas_QMH101,,SR_Meas_QMS101,,TA_Meas_QMH101,,GenWind,,GenWind,
time,status,PA,status,PR,status,RH,status,SR,status,TA,status,DirAvg,status,SpdAvg,
2013-02-24, 00:00:04,VALID,918.457,VALID,0,VALID,92.4187,VALID,0.107441,VALID,21.0876,VALID,345,VALID,0,
2013-02-24, 00:01:04,VALID,918.397,VALID,0,VALID,92.5711,VALID,0,VALID,21.0681,VALID,345,VALID,0,
2013-02-24, 00:02:04,VALID,918.392,VALID,0,VALID,92.5025,VALID,0,VALID,21.0681,VALID,345,VALID,0,
2013-02-24, 00:03:04,VALID,918.394,VALID,0,VALID,92.3882,VALID,0,VALID,21.0681,VALID,345,VALID,0,
2013-02-24, 00:04:04,VALID,918.397,VALID,0,VALID,92.2281,VALID,0,VALID,21.0291,VALID,345,VALID,0,
2013-02-24, 00:05:04,VALID,918.395,VALID,0,VALID,92.0756,VALID,0.107441,VALID,20.9901,VALID,345,VALID,0,
2013-02-24, 00:06:04,VALID,918.411,VALID,0,VALID,92.0985,VALID,0.107441,VALID,20.9316,VALID,345,VALID,0,
2013-02-24, 00:07:04,VALID,918.387,VALID,0,VALID,92.1442,VALID,0,VALID,20.873,VALID,345,VALID,0,
2013-02-24, 00:08:04,VALID,918.419,VALID,0,VALID,92.1366,VALID,0,VALID,20.7755,VALID,345,VALID,0,
2013-02-24, 00:09:04,VALID,918.387,VALID,0,VALID,92.2814,VALID,0,VALID,20.6975,VALID,345,VALID,0,
2013-02-24, 00:10:04,VALID,918.338,VALID,0,VALID,92.3577,VALID,0,VALID,20.6194,VALID,345,VALID,0,
2013-02-24, 00:11:04,VALID,918.31,VALID,0,VALID,92.6245,VALID,0,VALID,20.5414,VALID,356,VALID,0,
2013-02-24, 00:12:04,VALID,918.312,VALID,0,VALID,92.7541,VALID,0,VALID,20.5219,VALID,14,VALID,0,
2013-02-24, 00:13:04,VALID,918.288,VALID,0,VALID,92.8075,VALID,0,VALID,20.5024,VALID,14,VALID,0,
2013-02-24, 00:14:04,VALID,918.264,VALID,0,VALID,92.7541,VALID,0,VALID,20.5219,VALID,14,VALID,0,
2013-02-24, 00:15:04,VALID,918.269,VALID,0,VALID,92.6626,VALID,0,VALID,20.5414,VALID,14,VALID,0,
2013-02-24, 00:16:04,VALID,918.338,VALID,0,VALID,92.4415,VALID,0,VALID,20.5999,VALID,315,VALID,0,
2013-02-24, 00:17:04,VALID,918.33,VALID,0,VALID,92.1595,VALID,0.107441,VALID,20.6194,VALID,315,VALID,0,
2013-02-24, 00:18:04,VALID,918.332,VALID,0,VALID,91.8393,VALID,0,VALID,20.6585,VALID,315,VALID,0,
2013-02-24, 00:19:04,VALID,918.379,VALID,0,VALID,91.5344,VALID,0,VALID,20.639,VALID,315,VALID,0,
2013-02-24, 00:20:04,VALID,918.349,VALID,0,VALID,92.0909,VALID,0,VALID,20.6585,VALID,315,VALID,0,
2013-02-24, 00:21:04,VALID,918.338,VALID,0,VALID,92.2205,VALID,0,VALID,20.678,VALID,342,VALID,0,
2013-02-24, 00:22:04,VALID,918.32,VALID,0,VALID,91.9308,VALID,0,VALID,20.639,VALID,30,VALID,0,
2013-02-24, 00:23:04,VALID,918.32,VALID,0,VALID,92.068,VALID,0,VALID,20.6194,VALID,9,VALID,0,
2013-02-24, 00:24:04,VALID,918.3,VALID,0,VALID,92.1823,VALID,0,VALID,20.5609,VALID,9,VALID,0,
2013-02-24, 00:25:04,VALID,918.295,VALID,0,VALID,92.4263,VALID,0,VALID,20.4829,VALID,9,VALID,0,
2013-02-24, 00:26:04,VALID,918.345,VALID,0,VALID,92.7617,VALID,0,VALID,20.4829,VALID,346,VALID,0,
2013-02-24, 00:27:04,VALID,918.348,VALID,0,VALID,92.9218,VALID,0,VALID,20.5024,VALID,346,VALID,0,
2013-02-24, 00:28:04,VALID,918.369,VALID,0,VALID,92.9828,VALID,0,VALID,20.582,VALID,346,VALID,0,
2013-02-24, 00:29:04,VALID,918.353,VALID,0,VALID,92.8303,VALID,0,VALID,20.5999,VALID,346,VALID,0,
2013-02-24, 00:30:04,VALID,918.29,VALID,0,VALID,92.6169,VALID,0,VALID,20.6194,VALID,14,VALID,0,
2013-02-24, 00:31:04,VALID,918.3,VALID,0,VALID,92.8227,VALID,0,VALID,20.6585,VALID,14,VALID,0,
2013-02-24, 00:32:04,VALID,918.274,VALID,0,VALID,92.7617,VALID,0,VALID,20.639,VALID,349,VALID,0,
2013-02-24, 00:33:04,VALID,918.297,VALID,0,VALID,92.8761,VALID,0,VALID,20.639,VALID,337,VALID,0,
2013-02-24, 00:34:04,VALID,918.289,VALID,0,VALID,92.9828,VALID,0,VALID,20.6585,VALID,337,VALID,0,
2013-02-24, 00:35:04,VALID,918.268,VALID,0,VALID,93.12,VALID,0,VALID,20.6795,VALID,337,VALID,0,
2013-02-24, 00:36:04,VALID,918.246,VALID,0,VALID,92.7465,VALID,0.107441,VALID,20.6179,VALID,359,VALID,0,
2013-02-24, 00:37:04,VALID,918.231,VALID,0,VALID,92.6245,VALID,0,VALID,20.5609,VALID,5,VALID,0,
2013-02-24, 00:38:04,VALID,918.217,VALID,0,VALID,92.8608,VALID,0,VALID,20.504,VALID,5,VALID,0,
2013-02-24, 00:39:04,VALID,918.219,VALID,0,VALID,93.1505,VALID,0,VALID,20.4665,VALID,5,VALID,0,
2013-02-24, 00:40:04,VALID,918.211,VALID,0,VALID,93.5774,VALID,0,VALID,20.4259,VALID,5,VALID,0,
2013-02-24, 00:41:04,VALID,918.235,VALID,0,VALID,93.7375,VALID,0,VALID,20.4064,VALID,5,VALID,0,
2013-02-24, 00:42:04,VALID,918.234,VALID,0,VALID,93.7299,VALID,0,VALID,20.3869,VALID,5,VALID,0,
2013-02-24, 00:43:04,VALID,918.198,VALID,0,VALID,93.7299,VALID,0,VALID,20.3674,VALID,5,VALID,0,
2013-02-24, 00:44:04,VALID,918.193,VALID,0,VALID,93.829,VALID,0,VALID,20.3479,VALID,5,VALID,0,
2013-02-24, 00:45:04,VALID,918.115,VALID,0,VALID,93.9205,VALID,0,VALID,20.3284,VALID,4,VALID,0,
2013-02-24, 00:46:04,VALID,918.147,VALID,0,VALID,94.0577,VALID,0,VALID,20.3495,VALID,4,VALID,0,
2013-02-24, 00:47:04,VALID,918.159,VALID,0,VALID,94.1034,VALID,0,VALID,20.3479,VALID,4,VALID,0,
2013-02-24, 00:48:04,VALID,918.13,VALID,0,VALID,94.0501,VALID,0,VALID,20.3479,VALID,4,VALID,0,
2013-02-24, 00:49:04,VALID,918.137,VALID,0,VALID,94.0196,VALID,0,VALID,20.3674,VALID,4,VALID,0,
2013-02-24, 00:50:04,VALID,918.139,VALID,0,VALID,94.012,VALID,0,VALID,20.3869,VALID,4,VALID,0,
2013-02-24, 00:51:04,VALID,918.103,VALID,0,VALID,93.8138,VALID,0,VALID,20.3674,VALID,4,VALID,0,
2013-02-24, 00:52:04,VALID,918.072,VALID,0,VALID,93.7223,VALID,0,VALID,20.3479,VALID,3,VALID,0,
2013-02-24, 00:53:04,VALID,918.036,VALID,0,VALID,93.5774,VALID,0,VALID,20.3464,VALID,4,VALID,0,
2013-02-24, 00:54:04,VALID,918.056,VALID,0,VALID,93.5546,VALID,0,VALID,20.3269,VALID,4,VALID,0,
2013-02-24, 00:55:04,VALID,918.062,VALID,0,VALID,93.5469,VALID,0,VALID,20.3464,VALID,3,VALID,0,
2013-02-24, 00:56:04,VALID,918.024,VALID,0,VALID,93.6232,VALID,0,VALID,20.3269,VALID,4,VALID,0,
2013-02-24, 00:57:04,VALID,918.047,VALID,0,VALID,93.5317,VALID,0.107441,VALID,20.2668,VALID,4,VALID,0,
2013-02-24, 00:58:04,VALID,918.052,VALID,0,VALID,93.6537,VALID,0,VALID,20.2489,VALID,4,VALID,0,
2013-02-24, 00:59:04,VALID,918.016,VALID,0,VALID,93.8824,VALID,0,VALID,20.2098,VALID,4,VALID,0,
2013-02-24, 01:00:04,VALID,917.998,VALID,0,VALID,94.0348,VALID,0,VALID,20.1513,VALID,4,VALID,0,
2013-02-24, 01:01:04,VALID,918.023,VALID,0,VALID,94.3703,VALID,0,VALID,20.1513,VALID,3,VALID,0,
2013-02-24, 01:02:04,VALID,917.969,VALID,0,VALID,94.5609,VALID,0,VALID,20.1513,VALID,4,VALID,0,
2013-02-24, 01:03:04,VALID,917.94,VALID,0,VALID,94.6295,VALID,0,VALID,20.1513,VALID,5,VALID,0,
2013-02-24, 01:04:04,VALID,917.967,VALID,0,VALID,94.6066,VALID,0,VALID,20.1708,VALID,5,VALID,0,
2013-02-24, 01:05:04,VALID,917.938,VALID,0,VALID,94.4694,VALID,0,VALID,20.1513,VALID,5,VALID,0,
2013-02-24, 01:06:04,VALID,917.965,VALID,0,VALID,94.3245,VALID,0,VALID,20.1123,VALID,5,VALID,0,
2013-02-24, 01:07:04,VALID,917.944,VALID,0,VALID,94.2483,VALID,0.107441,VALID,20.0733,VALID,5,VALID,0,
2013-02-24, 01:08:04,VALID,917.952,VALID,0,VALID,94.2712,VALID,0,VALID,20.0749,VALID,5,VALID,0,
2013-02-24, 01:09:04,VALID,917.935,VALID,0,VALID,94.4084,VALID,0,VALID,20.0538,VALID,5,VALID,0,
2013-02-24, 01:10:04,VALID,917.875,VALID,0,VALID,94.4313,VALID,0,VALID,20.0538,VALID,5,VALID,0,
2013-02-24, 01:11:04,VALID,917.878,VALID,0,VALID,94.416,VALID,0,VALID,20.0148,VALID,5,VALID,0,
2013-02-24, 01:12:04,VALID,917.866,VALID,0,VALID,94.3931,VALID,0,VALID,19.9758,VALID,5,VALID,0,
2013-02-24, 01:13:04,VALID,917.828,VALID,0,VALID,94.7591,VALID,0,VALID,19.9953,VALID,23,VALID,0,
2013-02-24, 01:14:04,VALID,917.801,VALID,0,VALID,94.8582,VALID,0,VALID,20.0133,VALID,29,VALID,0,
2013-02-24, 01:15:04,VALID,917.824,VALID,0,VALID,94.7133,VALID,0,VALID,20.0538,VALID,22,VALID,0,
2013-02-24, 01:16:04,VALID,917.816,VALID,0,VALID,94.6066,VALID,0,VALID,20.0343,VALID,23,VALID,0,
2013-02-24, 01:17:04,VALID,917.805,VALID,0,VALID,94.6447,VALID,0,VALID,20.0733,VALID,23,VALID,0,
2013-02-24, 01:18:04,VALID,917.777,VALID,0,VALID,94.7209,VALID,0.107441,VALID,20.1123,VALID,23,VALID,0,
2013-02-24, 01:19:04,VALID,917.736,VALID,0,VALID,94.538,VALID,0,VALID,20.0928,VALID,23,VALID,0,
2013-02-24, 01:20:04,VALID,917.728,VALID,0,VALID,94.5151,VALID,0,VALID,20.1139,VALID,23,VALID,0,
2013-02-24, 01:21:04,VALID,917.743,VALID,0,VALID,94.3169,VALID,0,VALID,20.1139,VALID,23,VALID,0,
2013-02-24, 01:22:04,VALID,917.726,VALID,0,VALID,94.2178,VALID,0,VALID,20.0733,VALID,23,VALID,0,
2013-02-24, 01:23:04,VALID,917.701,VALID,0,VALID,94.2559,VALID,0,VALID,20.1334,VALID,23,VALID,0,
2013-02-24, 01:24:04,VALID,917.694,VALID,0,VALID,94.2864,VALID,0,VALID,20.1334,VALID,23,VALID,0,
2013-02-24, 01:25:04,VALID,917.683,VALID,0,VALID,94.3017,VALID,0,VALID,20.1334,VALID,23,VALID,0,
2013-02-24, 01:26:04,VALID,917.707,VALID,0,VALID,94.3093,VALID,0,VALID,20.1123,VALID,23,VALID,0,
2013-02-24, 01:27:04,VALID,917.656,VALID,0,VALID,94.2559,VALID,0,VALID,20.1334,VALID,23,VALID,0,
2013-02-24, 01:28:04,VALID,917.666,VALID,0,VALID,94.2407,VALID,0,VALID,20.1139,VALID,23,VALID,0,
2013-02-24, 01:29:04,VALID,917.632,VALID,0,VALID,94.0958,VALID,0,VALID,20.0538,VALID,23,VALID,0,
2013-02-24, 01:30:04,VALID,917.606,VALID,0,VALID,94.1339,VALID,0,VALID,20.0749,VALID,23,VALID,0,
2013-02-24, 01:31:04,VALID,917.559,VALID,0,VALID,94.3093,VALID,0,VALID,20.0163,VALID,23,VALID,0,
2013-02-24, 01:32:04,VALID,917.558,VALID,0,VALID,94.599,VALID,0,VALID,19.9953,VALID,23,VALID,0,
2013-02-24, 01:33:04,VALID,917.485,VALID,0,VALID,94.7057,VALID,0,VALID,19.9563,VALID,23,VALID,0,
2013-02-24, 01:34:04,VALID,917.482,VALID,0,VALID,94.82,VALID,0,VALID,19.9773,VALID,23,VALID,0,
2013-02-24, 01:35:04,VALID,917.466,VALID,0,VALID,94.9725,VALID,0,VALID,19.9968,VALID,23,VALID,0,
2013-02-24, 01:36:04,VALID,917.432,VALID,0,VALID,94.942,VALID,0,VALID,19.9758,VALID,23,VALID,0,
2013-02-24, 01:37:04,VALID,917.429,VALID,0,VALID,94.8887,VALID,0,VALID,19.9758,VALID,23,VALID,0,
2013-02-24, 01:38:04,VALID,917.436,VALID,0,VALID,94.7209,VALID,0,VALID,19.9968,VALID,23,VALID,0,
2013-02-24, 01:39:04,VALID,917.414,VALID,0,VALID,94.6523,VALID,0,VALID,19.9563,VALID,23,VALID,0,
2013-02-24, 01:40:04,VALID,917.401,VALID,0,VALID,94.6676,VALID,0,VALID,19.9578,VALID,23,VALID,0,
2013-02-24, 01:41:04,VALID,917.44,VALID,0,VALID,94.66,VALID,0,VALID,19.9578,VALID,23,VALID,0,
2013-02-24, 01:42:04,VALID,917.412,VALID,0,VALID,94.9496,VALID,0,VALID,19.9758,VALID,23,VALID,0,
2013-02-24, 01:43:04,VALID,917.37,VALID,0,VALID,95.0183,VALID,0,VALID,20.0163,VALID,23,VALID,0,
2013-02-24, 01:44:04,VALID,917.385,VALID,0,VALID,95.1783,VALID,0,VALID,20.0553,VALID,23,VALID,0,
2013-02-24, 01:45:04,VALID,917.393,VALID,0,VALID,95.247,VALID,0,VALID,20.0538,VALID,23,VALID,0,
2013-02-24, 01:46:04,VALID,917.383,VALID,0,VALID,95.2012,VALID,0,VALID,20.1139,VALID,23,VALID,0,
2013-02-24, 01:47:04,VALID,917.363,VALID,0,VALID,95.0945,VALID,0,VALID,20.1123,VALID,23,VALID,0,
2013-02-24, 01:48:04,VALID,917.332,VALID,0,VALID,94.9725,VALID,0,VALID,20.0928,VALID,23,VALID,0,
2013-02-24, 01:49:04,VALID,917.357,VALID,0,VALID,94.9344,VALID,0.107441,VALID,20.1334,VALID,23,VALID,0,
2013-02-24, 01:50:04,VALID,917.364,VALID,0,VALID,94.8963,VALID,0,VALID,20.1318,VALID,23,VALID,0,
2013-02-24, 01:51:04,VALID,917.34,VALID,0,VALID,94.8505,VALID,0,VALID,20.1513,VALID,23,VALID,0,
2013-02-24, 01:52:04,VALID,917.351,VALID,0,VALID,94.6905,VALID,0,VALID,20.1708,VALID,23,VALID,0,
2013-02-24, 01:53:04,VALID,917.347,VALID,0,VALID,94.4922,VALID,0,VALID,20.1529,VALID,23,VALID,0,
2013-02-24, 01:54:04,VALID,917.308,VALID,0,VALID,94.3626,VALID,0,VALID,20.1334,VALID,23,VALID,0,
2013-02-24, 01:55:04,VALID,917.296,VALID,0,VALID,94.3245,VALID,0,VALID,20.1139,VALID,23,VALID,0,
2013-02-24, 01:56:04,VALID,917.279,VALID,0,VALID,94.416,VALID,0,VALID,20.0944,VALID,162,VALID,0,
2013-02-24, 01:57:04,VALID,917.283,VALID,0,VALID,94.5456,VALID,0,VALID,20.0749,VALID,162,VALID,0,
2013-02-24, 01:58:04,VALID,917.225,VALID,0,VALID,94.6218,VALID,0,VALID,20.0553,VALID,162,VALID,0,
2013-02-24, 01:59:04,VALID,917.182,VALID,0,VALID,94.5913,VALID,0,VALID,20.0163,VALID,161,VALID,0,
2013-02-24, 02:00:04,VALID,917.143,VALID,0,VALID,94.7514,VALID,0,VALID,20.0163,VALID,147,VALID,0,
2013-02-24, 02:01:04,VALID,917.151,VALID,0,VALID,94.9344,VALID,0,VALID,20.0358,VALID,143,VALID,0,
2013-02-24, 02:02:04,VALID,917.133,VALID,0,VALID,94.7896,VALID,0,VALID,20.0553,VALID,143,VALID,0,
2013-02-24, 02:03:04,VALID,917.106,VALID,0,VALID,94.5761,VALID,0,VALID,19.9578,VALID,143,VALID,0,
2013-02-24, 02:04:04,VALID,917.081,VALID,0,VALID,94.7972,VALID,0,VALID,19.9563,VALID,143,VALID,0,
2013-02-24, 02:05:04,VALID,917.046,VALID,0,VALID,94.5304,VALID,0,VALID,19.9188,VALID,143,VALID,0,
2013-02-24, 02:06:04,VALID,917.01,VALID,0,VALID,94.8505,VALID,0,VALID,19.9188,VALID,75,VALID,0,
2013-02-24, 02:07:04,VALID,917.009,VALID,0,VALID,94.3855,VALID,0,VALID,19.8213,VALID,75,VALID,0,
2013-02-24, 02:08:04,VALID,916.995,VALID,0,VALID,94.3017,VALID,0,VALID,19.7628,VALID,75,VALID,0,
2013-02-24, 02:09:04,VALID,916.936,VALID,0,VALID,94.4694,VALID,0,VALID,19.7238,VALID,75,VALID,0,
2013-02-24, 02:10:04,VALID,916.887,VALID,0,VALID,94.942,VALID,0,VALID,19.7808,VALID,75,VALID,0,
2013-02-24, 02:11:04,VALID,916.886,VALID,0,VALID,94.8353,VALID,0,VALID,19.7823,VALID,75,VALID,0,
2013-02-24, 02:12:04,VALID,916.88,VALID,0,VALID,94.7896,VALID,0,VALID,19.7823,VALID,75,VALID,0,
2013-02-24, 02:13:04,VALID,916.884,VALID,0,VALID,94.8582,VALID,0,VALID,19.7613,VALID,75,VALID,0,
2013-02-24, 02:14:04,VALID,916.858,VALID,0,VALID,94.8353,VALID,0,VALID,19.7823,VALID,75,VALID,0,
2013-02-24, 02:15:04,VALID,916.852,VALID,0,VALID,94.7896,VALID,0,VALID,19.7823,VALID,75,VALID,0,
2013-02-24, 02:16:04,VALID,916.822,VALID,0,VALID,94.9649,VALID,0,VALID,19.8213,VALID,75,VALID,0,
2013-02-24, 02:17:04,VALID,916.829,VALID,0,VALID,94.8734,VALID,0,VALID,19.8003,VALID,75,VALID,0,
2013-02-24, 02:18:04,VALID,916.803,VALID,0,VALID,94.8124,VALID,0,VALID,19.7808,VALID,75,VALID,0,
2013-02-24, 02:19:04,VALID,916.788,VALID,0,VALID,94.7591,VALID,0,VALID,19.7418,VALID,102,VALID,0,
2013-02-24, 02:20:04,VALID,916.802,VALID,0,VALID,94.6905,VALID,0,VALID,19.7028,VALID,127,VALID,0,
2013-02-24, 02:21:04,VALID,916.788,VALID,0,VALID,94.7057,VALID,0,VALID,19.7043,VALID,127,VALID,0,
2013-02-24, 02:22:04,VALID,916.785,VALID,0,VALID,94.6905,VALID,0,VALID,19.6848,VALID,127,VALID,0,
2013-02-24, 02:23:04,VALID,916.763,VALID,0,VALID,94.7209,VALID,0,VALID,19.6638,VALID,127,VALID,0,
2013-02-24, 02:24:04,VALID,916.77,VALID,0,VALID,94.8582,VALID,0,VALID,19.7043,VALID,127,VALID,0,
2013-02-24, 02:25:04,VALID,916.746,VALID,0,VALID,94.9496,VALID,0,VALID,19.7043,VALID,127,VALID,0,
2013-02-24, 02:26:04,VALID,916.691,VALID,0,VALID,94.942,VALID,0,VALID,19.6833,VALID,127,VALID,0,
2013-02-24, 02:27:04,VALID,916.69,VALID,0,VALID,94.9954,VALID,0,VALID,19.7028,VALID,165,VALID,0,
2013-02-24, 02:28:04,VALID,916.709,VALID,0,VALID,95.0335,VALID,0,VALID,19.7238,VALID,165,VALID,0,
2013-02-24, 02:29:04,VALID,916.721,VALID,0,VALID,95.0716,VALID,0,VALID,19.7433,VALID,165,VALID,0,
2013-02-24, 02:30:04,VALID,916.698,VALID,0,VALID,95.1631,VALID,0,VALID,19.7223,VALID,165,VALID,0,
2013-02-24, 02:31:04,VALID,916.699,VALID,0,VALID,95.1097,VALID,0.107441,VALID,19.7628,VALID,165,VALID,0,
2013-02-24, 02:32:04,VALID,916.685,VALID,0,VALID,95.2012,VALID,0,VALID,19.8018,VALID,165,VALID,0,
2013-02-24, 02:33:04,VALID,916.648,VALID,0,VALID,95.0183,VALID,0,VALID,19.7433,VALID,165,VALID,0,
2013-02-24, 02:34:04,VALID,916.644,VALID,0,VALID,95.0869,VALID,0,VALID,19.7628,VALID,165,VALID,0,
2013-02-24, 02:35:04,VALID,916.675,VALID,0,VALID,95.1783,VALID,0,VALID,19.7613,VALID,165,VALID,0,
2013-02-24, 02:36:04,VALID,916.642,VALID,0,VALID,95.247,VALID,0,VALID,19.8213,VALID,165,VALID,0,
2013-02-24, 02:37:04,VALID,916.619,VALID,0,VALID,95.1936,VALID,0,VALID,19.8408,VALID,165,VALID,0,
2013-02-24, 02:38:04,VALID,916.599,VALID,0,VALID,95.1631,VALID,0,VALID,19.8603,VALID,165,VALID,0,
2013-02-24, 02:39:04,VALID,916.588,VALID,0,VALID,94.9496,VALID,0,VALID,19.8018,VALID,165,VALID,0,
2013-02-24, 02:40:04,VALID,916.561,VALID,0,VALID,94.6523,VALID,0,VALID,19.7238,VALID,165,VALID,0,
2013-02-24, 02:41:04,VALID,916.559,VALID,0,VALID,94.7362,VALID,0,VALID,19.6848,VALID,165,VALID,0,
2013-02-24, 02:42:04,VALID,916.528,VALID,0,VALID,94.7286,VALID,0,VALID,19.6653,VALID,165,VALID,0,
2013-02-24, 02:43:04,VALID,916.489,VALID,0,VALID,95.3613,VALID,0,VALID,19.7223,VALID,151,VALID,0,
2013-02-24, 02:44:04,VALID,916.462,VALID,0,VALID,95.59,VALID,0,VALID,19.8213,VALID,151,VALID,0,
2013-02-24, 02:45:04,VALID,916.445,VALID,0,VALID,95.7196,VALID,0,VALID,19.8798,VALID,151,VALID,0,
2013-02-24, 02:46:04,VALID,916.443,VALID,0,VALID,95.7425,VALID,0,VALID,19.8993,VALID,151,VALID,0,
2013-02-24, 02:47:04,VALID,916.422,VALID,0,VALID,95.7654,VALID,0,VALID,19.9578,VALID,151,VALID,0,
2013-02-24, 02:48:04,VALID,916.444,VALID,0,VALID,95.6357,VALID,0.107441,VALID,19.9773,VALID,151,VALID,0,
2013-02-24, 02:49:04,VALID,916.446,VALID,0,VALID,95.5214,VALID,0,VALID,19.9578,VALID,151,VALID,0,
2013-02-24, 02:50:04,VALID,916.43,VALID,0,VALID,95.4528,VALID,0,VALID,19.9563,VALID,151,VALID,0,
2013-02-24, 02:51:04,VALID,916.397,VALID,0,VALID,95.3003,VALID,0,VALID,19.9578,VALID,151,VALID,0,
2013-02-24, 02:52:04,VALID,916.35,VALID,0,VALID,95.468,VALID,0,VALID,19.9953,VALID,51,VALID,0,
2013-02-24, 02:53:04,VALID,916.348,VALID,0,VALID,95.4909,VALID,0,VALID,20.0553,VALID,51,VALID,0,
2013-02-24, 02:54:04,VALID,916.361,VALID,0,VALID,95.3384,VALID,0,VALID,20.0553,VALID,50,VALID,0,
2013-02-24, 02:55:04,VALID,916.343,VALID,0,VALID,95.5214,VALID,0,VALID,20.0343,VALID,6,VALID,0,
2013-02-24, 02:56:04,VALID,916.353,VALID,0,VALID,95.6967,VALID,0,VALID,20.1139,VALID,11,VALID,0,
2013-02-24, 02:57:04,VALID,916.348,VALID,0,VALID,95.6815,VALID,0,VALID,20.1334,VALID,14,VALID,0,
2013-02-24, 02:58:04,VALID,916.346,VALID,0,VALID,95.5519,VALID,0,VALID,20.1123,VALID,15,VALID,0,
2013-02-24, 02:59:04,VALID,916.326,VALID,0,VALID,95.5519,VALID,0,VALID,20.1334,VALID,8,VALID,0,
2013-02-24, 03:00:04,VALID,916.315,VALID,0,VALID,95.5062,VALID,0,VALID,20.1139,VALID,4,VALID,0,
2013-02-24, 03:01:04,VALID,916.318,VALID,0,VALID,95.6281,VALID,0,VALID,20.1123,VALID,4,VALID,0,
2013-02-24, 03:02:04,VALID,916.342,VALID,0,VALID,95.6815,VALID,0,VALID,20.1529,VALID,4,VALID,0,
2013-02-24, 03:03:04,VALID,916.352,VALID,0,VALID,95.7196,VALID,0,VALID,20.1724,VALID,337,VALID,0,
2013-02-24, 03:04:04,VALID,916.319,VALID,0,VALID,95.651,VALID,0,VALID,20.1529,VALID,337,VALID,0,
2013-02-24, 03:05:04,VALID,916.257,VALID,0,VALID,95.6434,VALID,0,VALID,20.1318,VALID,337,VALID,0,
2013-02-24, 03:06:04,VALID,916.278,VALID,0,VALID,95.7654,VALID,0,VALID,20.1919,VALID,337,VALID,0,
2013-02-24, 03:07:04,VALID,916.238,VALID,0,VALID,95.7958,VALID,0,VALID,20.1903,VALID,337,VALID,0,
2013-02-24, 03:08:04,VALID,916.23,VALID,0,VALID,95.7882,VALID,0,VALID,20.2098,VALID,337,VALID,0,
2013-02-24, 03:09:04,VALID,916.226,VALID,0,VALID,95.7349,VALID,0,VALID,20.2293,VALID,337,VALID,0,
2013-02-24, 03:10:04,VALID,916.216,VALID,0,VALID,95.6815,VALID,0,VALID,20.2699,VALID,337,VALID,0,
2013-02-24, 03:11:04,VALID,916.208,VALID,0,VALID,95.6586,VALID,0,VALID,20.2699,VALID,337,VALID,0,
2013-02-24, 03:12:04,VALID,916.212,VALID,0,VALID,95.7044,VALID,0,VALID,20.2879,VALID,337,VALID,0,
2013-02-24, 03:13:04,VALID,916.188,VALID,0,VALID,95.6281,VALID,0,VALID,20.3089,VALID,337,VALID,0,
2013-02-24, 03:14:04,VALID,916.205,VALID,0,VALID,95.6129,VALID,0,VALID,20.3284,VALID,337,VALID,0,
2013-02-24, 03:15:04,VALID,916.183,VALID,0,VALID,95.529,VALID,0,VALID,20.3074,VALID,337,VALID,0,
2013-02-24, 03:16:04,VALID,916.165,VALID,0,VALID,95.5824,VALID,0,VALID,20.3284,VALID,337,VALID,0,
2013-02-24, 03:17:04,VALID,916.182,VALID,0,VALID,95.5824,VALID,0,VALID,20.3674,VALID,337,VALID,0,
2013-02-24, 03:18:04,VALID,916.127,VALID,0,VALID,95.5062,VALID,0,VALID,20.3674,VALID,337,VALID,0,
2013-02-24, 03:19:04,VALID,916.114,VALID,0,VALID,95.4604,VALID,0,VALID,20.3464,VALID,354,VALID,0,
2013-02-24, 03:20:04,VALID,916.121,VALID,0,VALID,95.3537,VALID,0,VALID,20.3464,VALID,10,VALID,0,
2013-02-24, 03:21:04,VALID,916.088,VALID,0,VALID,95.3613,VALID,0,VALID,20.3659,VALID,10,VALID,0,
2013-02-24, 03:22:04,VALID,916.036,VALID,0,VALID,95.3918,VALID,0,VALID,20.3659,VALID,9,VALID,0,
2013-02-24, 03:23:04,VALID,916.003,VALID,0,VALID,95.4147,VALID,0,VALID,20.4064,VALID,10,VALID,0,
2013-02-24, 03:24:04,VALID,915.987,VALID,0,VALID,95.4452,VALID,0,VALID,20.4064,VALID,10,VALID,0,
2013-02-24, 03:25:04,VALID,915.96,VALID,0,VALID,95.3994,VALID,0,VALID,20.4259,VALID,10,VALID,0,
2013-02-24, 03:26:04,VALID,915.947,VALID,0,VALID,95.3384,VALID,0,VALID,20.4259,VALID,328,VALID,0,
2013-02-24, 03:27:04,VALID,915.946,VALID,0,VALID,95.3384,VALID,0,VALID,20.4454,VALID,270,VALID,0,
2013-02-24, 03:28:05,VALID,915.982,VALID,0,VALID,95.3461,VALID,0,VALID,20.465,VALID,284,VALID,0,
2013-02-24, 03:29:05,VALID,915.967,VALID,0,VALID,95.3689,VALID,0,VALID,20.4845,VALID,284,VALID,0,
2013-02-24, 03:30:05,VALID,915.98,VALID,0,VALID,95.3156,VALID,0,VALID,20.504,VALID,284,VALID,0,
2013-02-24, 03:31:05,VALID,915.982,VALID,0,VALID,95.2698,VALID,0,VALID,20.5235,VALID,284,VALID,0,
2013-02-24, 03:32:05,VALID,915.999,VALID,0,VALID,95.1707,VALID,0,VALID,20.5235,VALID,284,VALID,0,
2013-02-24, 03:33:05,VALID,915.95,VALID,0,VALID,95.1936,VALID,0,VALID,20.543,VALID,285,VALID,0,
2013-02-24, 03:34:05,VALID,915.942,VALID,0,VALID,95.0945,VALID,0,VALID,20.543,VALID,285,VALID,0,
2013-02-24, 03:35:05,VALID,915.936,VALID,0,VALID,95.0183,VALID,0,VALID,20.543,VALID,285,VALID,0,
2013-02-24, 03:36:05,VALID,915.938,VALID,0,VALID,95.0488,VALID,0,VALID,20.543,VALID,301,VALID,0,
2013-02-24, 03:37:05,VALID,915.889,VALID,0,VALID,95.0106,VALID,0,VALID,20.5625,VALID,305,VALID,0,
2013-02-24, 03:38:05,VALID,915.868,VALID,0,VALID,94.9649,VALID,0,VALID,20.5625,VALID,305,VALID,0,
2013-02-24, 03:39:05,VALID,915.862,VALID,0,VALID,94.9115,VALID,0,VALID,20.6015,VALID,305,VALID,0,
2013-02-24, 03:40:05,VALID,915.847,VALID,0,VALID,94.8658,VALID,0,VALID,20.621,VALID,305,VALID,0,
2013-02-24, 03:41:05,VALID,915.807,VALID,0,VALID,94.7438,VALID,0,VALID,20.6015,VALID,305,VALID,0,
2013-02-24, 03:42:05,VALID,915.811,VALID,0,VALID,94.6905,VALID,0,VALID,20.582,VALID,305,VALID,0,
2013-02-24, 03:43:05,VALID,915.784,VALID,0,VALID,94.6295,VALID,0,VALID,20.5625,VALID,305,VALID,0,
2013-02-24, 03:44:05,VALID,915.785,VALID,0,VALID,94.6676,VALID,0,VALID,20.543,VALID,305,VALID,0,
2013-02-24, 03:45:05,VALID,915.753,VALID,0,VALID,94.6905,VALID,0,VALID,20.543,VALID,305,VALID,0,
2013-02-24, 03:46:05,VALID,915.736,VALID,0,VALID,94.8048,VALID,0,VALID,20.543,VALID,333,VALID,0,
2013-02-24, 03:47:05,VALID,915.688,VALID,0,VALID,94.7819,VALID,0,VALID,20.543,VALID,333,VALID,0,
2013-02-24, 03:48:05,VALID,915.705,VALID,0,VALID,94.7514,VALID,0,VALID,20.5235,VALID,322,VALID,0,
2013-02-24, 03:49:05,VALID,915.76,VALID,0,VALID,94.7362,VALID,0,VALID,20.504,VALID,267,VALID,0,
2013-02-24, 03:50:05,VALID,915.764,VALID,0,VALID,94.7286,VALID,0,VALID,20.504,VALID,268,VALID,0,
2013-02-24, 03:51:05,VALID,915.767,VALID,0,VALID,94.599,VALID,0,VALID,20.465,VALID,315,VALID,0,
2013-02-24, 03:52:05,VALID,915.744,VALID,0,VALID,94.6828,VALID,0,VALID,20.4454,VALID,315,VALID,0,
2013-02-24, 03:53:05,VALID,915.72,VALID,0,VALID,94.6828,VALID,0,VALID,20.4259,VALID,315,VALID,0,
2013-02-24, 03:54:05,VALID,915.707,VALID,0,VALID,94.6905,VALID,0,VALID,20.4049,VALID,315,VALID,0,
2013-02-24, 03:55:05,VALID,915.687,VALID,0,VALID,94.6828,VALID,0,VALID,20.3854,VALID,315,VALID,0,
2013-02-24, 03:56:05,VALID,915.683,VALID,0,VALID,94.7057,VALID,0,VALID,20.3869,VALID,343,VALID,0,
2013-02-24, 03:57:05,VALID,915.693,VALID,0,VALID,94.7896,VALID,0,VALID,20.3464,VALID,5,VALID,0,
2013-02-24, 03:58:05,VALID,915.674,VALID,0,VALID,94.8582,VALID,0,VALID,20.3464,VALID,360,VALID,0,
2013-02-24, 03:59:05,VALID,915.675,VALID,0,VALID,94.9268,VALID,0,VALID,20.3074,VALID,352,VALID,0,
2013-02-24, 04:00:05,VALID,915.658,VALID,0,VALID,95.0106,VALID,0,VALID,20.3284,VALID,352,VALID,0,
2013-02-24, 04:01:05,VALID,915.651,VALID,0,VALID,94.9954,VALID,0,VALID,20.3284,VALID,352,VALID,0,